BEIDOU IGSO-7 (43539 NORAD) Tracking and Keplerian Element Data

This shows tracking and keplerian element data for the satellite.

Feedback or suggestion? Click here.




ElementValue
Catalog43539
NameBEIDOU IGSO-7
Epoch Orbit297
Epoch Day113.79699627
Epoch Year2019
RAAN186.12
Inclination55.0343
Eccentricity0.0023407
Argument of Perigee197.5685
Mean Anonmoly225.6044
Mean Motion1.00294477
Decay Rate-1.26E-06
L11 43539U 18057A 19113.79699627 -.00000126 00000-0 00000+0 0 9994
L22 43539 55.0343 186.1200 0023407 197.5685 225.6044 1.00294477 2976

Live tracking and technical data element details for BEIDOU IGSO-7 (NORAD 43539). BEIDOU IGSO-7 can be tracked NOW for your location showing map with azimuth and elevation plus other details from your city location.

Track the satellite on the map from your city or location and see movement details for azimuth, elevation, latitude, longitude, range, height, and movement on the map or in text.







IsCatalogInMostPopularTable: catalog: 43539, numindb: 134
Update: records affected: 1



GetName: 43539 BEIDOU IGSO-7

Hit Count: updated at: Thu, 25 Apr 2019 20:11:42 GMT